User: anonymous   Login
Location: Unspecified
(36.0100°N, 0.0000°E)
Time: 20:29:20
(UTC+00:00)
Language:

OBJECT D - Orbit

View from above orbital plane
View from above orbital plane
View from above satellite
View from above satellite

Ground track
Ground track

The orbit is defined by the following mean orbital elements,

1 44882U          26088.25357082 +.00000000 +00000-0 +76269-3 0 00008
2 44882  97.7909 182.3598 0012375 295.1687  64.8255 15.04168565    02
Epoch (UTC): 29 March 2026 06:05:08
Eccentricity: 0.0012375
inclination: 97.7909°
perigee height: 545 km
apogee height: 563 km
right ascension of ascending node: 182.3598°
argument of perigee: 295.1687°
revolutions per day: 15.04168565
mean anomaly at epoch: 64.8255°

The dashed part of the orbit path shows where the satellite is in the earth's shadow,  

DLR